Location: Chippewa Lake
(41.0698°N, 81.9010°W)
Time: 21:53:26
(UTC+00:00)

ATLAS 2AS CENTAUR R/B - Pass Details

Date: 09 May 2021
Orbit: 949 x 1263 km, 63.7° (Epoch: 07 May)

Event Time Altitude Azimuth Distance (km) Brightness Sun altitude
Rises 03:09:23 0° 327° (NNW) 4,120 7.2 -23.7°
Reaches altitude 10° 03:12:41 10° 339° (NNW) 3,109 6.1 -24.1°
Maximum altitude 03:19:00 29° 37° (NE) 1,923 4.2 -24.7°
Enters shadow 03:22:46 19° 82° (E) 2,352 4.2 -25.1°
